Weather History for KAFJ - November, 2012

Change the Weather History Date:

Sunday, November 4, 2012

  Actual Average Record
Temperature  
Mean Temperature 36 °F -  
Max Temperature 37 °F 53 °F 78 °F (2003)
Min Temperature 35 °F 34 °F 15 °F (2006)
Degree Days  
Heating Degree Days 29    
Moisture  
Dew Point 28 °F    
Average Humidity 71    
Maximum Humidity 87    
Minimum Humidity 60    
Precipitation  
Precipitation 0.00 in - - ()
Sea Level Pressure  
Sea Level Pressure 30.11 in    
Wind  
Wind Speed 2 mph (NNW)    
Max Wind Speed 10 mph    
Max Gust Speed -    
Visibility 10 miles    
Events      
Averages and records for this station are not official NWS values.
T = Trace of Precipitation, MM = Missing Value Source: NWS Daily Summary

Daily Weather History Graph

Daily Weather History Graph

Search for Another Location

Airport or City:

Trip Planner

Search our weather history database for the weather conditions in past years. The results will help you decide how hot, cold, wet, or windy it might be!

Date:

Astronomy

Nov. 04, 2012 Rise Set
Actual Time 6:54 AM EST 5:14 PM EST
Civil Twilight 6:26 AM EST 5:42 PM EST
Nautical Twilight 5:53 AM EST 6:15 PM EST
Astronomical Twilight 5:22 AM EST 6:46 PM EST
Moon 9:51 PM EST (11/4) 11:37 AM EST (11/4)
Length of Visible Light 11h 16m
Length of Day
10h 20m
Waning Gibbous, 72% of the Moon is Illuminated
Nov 4
Waning Gibbous
Nov 6
Last Quarter
Nov 13
New
Nov 20
First Quarter
Nov 28
Full

Hourly Weather History & Observations

Time (EST) Temp. Windchill Dew Point Humidity Pressure Visibility Wind Dir Wind Speed Gust Speed Precip Events Conditions
12:15 AM 37.4 °F - 30.2 °F 75% 30.11 in 10.0 mi Calm Calm - N/A   Overcast
12:35 AM 35.6 °F - 30.2 °F 81% 30.10 in 10.0 mi Calm Calm - N/A   Overcast
12:55 AM 35.6 °F - 30.2 °F 81% 30.10 in 10.0 mi Calm Calm - N/A   Overcast
1:15 AM 37.4 °F - 32.0 °F 81% 30.10 in 10.0 mi Calm Calm - N/A   Overcast
1:35 AM 35.6 °F - 32.0 °F 87% 30.11 in 10.0 mi Calm Calm - N/A   Overcast
1:55 AM 35.6 °F - 32.0 °F 87% 30.10 in 10.0 mi Calm Calm - N/A   Overcast
1:15 AM 37.4 °F - 30.2 °F 75% 30.10 in 10.0 mi Calm Calm - N/A   Overcast
1:35 AM 37.4 °F - 30.2 °F 75% 30.10 in 10.0 mi Calm Calm - N/A   Overcast
1:55 AM 37.4 °F - 30.2 °F 75% 30.10 in 10.0 mi Calm Calm - N/A   Overcast
2:15 AM 37.4 °F - 30.2 °F 75% 30.10 in 10.0 mi Calm Calm - N/A   Overcast
2:35 AM 37.4 °F - 32.0 °F 81% 30.10 in 10.0 mi Calm Calm - N/A   Overcast
2:55 AM 37.4 °F - 32.0 °F 81% 30.10 in 10.0 mi Calm Calm - N/A   Overcast
3:15 AM 37.4 °F - 32.0 °F 81% 30.10 in 10.0 mi Calm Calm - N/A   Overcast
3:35 AM 37.4 °F - 32.0 °F 81% 30.09 in 10.0 mi Calm Calm - N/A   Overcast
3:55 AM 37.4 °F - 32.0 °F 81% 30.09 in 10.0 mi Calm Calm - N/A   Overcast
4:15 AM 37.4 °F 33.8 °F 32.0 °F 81% 30.10 in 10.0 mi North 4.6 mph - N/A   Overcast
4:35 AM 37.4 °F 34.9 °F 32.0 °F 81% 30.10 in 10.0 mi North 3.5 mph - N/A   Overcast
4:55 AM 37.4 °F 33.8 °F 32.0 °F 81% 30.10 in 10.0 mi NNW 4.6 mph - N/A   Overcast
5:15 AM 35.6 °F 32.8 °F 32.0 °F 87% 30.11 in 10.0 mi NNW 3.5 mph - N/A   Overcast
5:35 AM 35.6 °F 31.7 °F 30.2 °F 81% 30.11 in 10.0 mi NNW 4.6 mph - N/A   Overcast
5:55 AM 35.6 °F 32.8 °F 30.2 °F 81% 30.10 in 10.0 mi NNW 3.5 mph - N/A   Overcast
6:15 AM 35.6 °F - 30.2 °F 81% 30.11 in 10.0 mi Calm Calm - N/A   Overcast
6:35 AM 35.6 °F 32.8 °F 30.2 °F 81% 30.11 in 10.0 mi NNW 3.5 mph - N/A   Overcast
7:15 AM 35.6 °F - 30.2 °F 81% 30.11 in 10.0 mi Calm Calm - N/A   Overcast
7:35 AM 35.6 °F 32.8 °F 28.4 °F 75% 30.11 in 10.0 mi NNW 3.5 mph - N/A   Overcast
7:55 AM 35.6 °F 31.7 °F 30.2 °F 81% 30.12 in 10.0 mi NNW 4.6 mph - N/A   Mostly Cloudy
8:15 AM 37.4 °F 32.1 °F 30.2 °F 75% 30.12 in 10.0 mi NNW 6.9 mph - N/A   Mostly Cloudy
8:35 AM 37.4 °F 31.4 °F 28.4 °F 70% 30.12 in 10.0 mi North 8.1 mph - N/A   Mostly Cloudy
8:55 AM 37.4 °F 31.4 °F 28.4 °F 70% 30.12 in 10.0 mi NNW 8.1 mph - N/A   Overcast
9:15 AM 37.4 °F 32.1 °F 28.4 °F 70% 30.13 in 10.0 mi NNW 6.9 mph - N/A   Overcast
9:35 AM 37.4 °F 30.3 °F 26.6 °F 65% 30.13 in 10.0 mi NW 10.4 mph - N/A   Overcast
9:55 AM 37.4 °F 32.8 °F 26.6 °F 65% 30.12 in 10.0 mi NW 5.8 mph - N/A   Overcast
10:15 AM 37.4 °F 30.8 °F 26.6 °F 65% 30.13 in 10.0 mi NNW 9.2 mph - N/A   Overcast
10:35 AM 37.4 °F 31.4 °F 26.6 °F 65% 30.13 in 10.0 mi NW 8.1 mph - N/A   Overcast
10:55 AM 37.4 °F 32.1 °F 26.6 °F 65% 30.13 in 10.0 mi NNW 6.9 mph - N/A   Overcast
11:15 AM 37.4 °F 32.1 °F 26.6 °F 65% 30.13 in 10.0 mi WNW 6.9 mph - N/A   Overcast
11:35 AM 37.4 °F 31.4 °F 26.6 °F 65% 30.12 in 10.0 mi NW 8.1 mph - N/A   Overcast
11:55 AM 37.4 °F 32.1 °F 24.8 °F 60% 30.12 in 10.0 mi NNW 6.9 mph - N/A   Overcast
12:15 PM 37.4 °F 32.8 °F 24.8 °F 60% 30.12 in 10.0 mi NW 5.8 mph - N/A   Overcast
12:35 PM 37.4 °F 32.8 °F 24.8 °F 60% 30.12 in 10.0 mi NNW 5.8 mph - N/A   Overcast
12:55 PM 37.4 °F 30.3 °F 24.8 °F 60% 30.11 in 10.0 mi North 10.4 mph - N/A   Overcast
1:15 PM 37.4 °F 32.1 °F 26.6 °F 65% 30.11 in 10.0 mi West 6.9 mph - N/A   Overcast
1:35 PM 37.4 °F 33.8 °F 26.6 °F 65% 30.11 in 10.0 mi WNW 4.6 mph - N/A   Overcast
1:55 PM 37.4 °F 31.4 °F 26.6 °F 65% 30.11 in 10.0 mi West 8.1 mph - N/A   Overcast
2:15 PM 37.4 °F 31.4 °F 24.8 °F 60% 30.10 in 10.0 mi NW 8.1 mph - N/A   Overcast
2:35 PM 37.4 °F 33.8 °F 26.6 °F 65% 30.10 in 10.0 mi NW 4.6 mph - N/A   Overcast
2:55 PM 37.4 °F 30.3 °F 24.8 °F 60% 30.11 in 10.0 mi NNW 10.4 mph - N/A   Overcast
3:15 PM 37.4 °F 32.8 °F 26.6 °F 65% 30.11 in 10.0 mi NNW 5.8 mph - N/A   Overcast
3:35 PM 37.4 °F 32.1 °F 26.6 °F 65% 30.11 in 10.0 mi NW 6.9 mph - N/A   Overcast
3:55 PM 37.4 °F 33.8 °F 24.8 °F 60% 30.11 in 10.0 mi NNW 4.6 mph - N/A   Overcast
4:15 PM 37.4 °F 31.4 °F 26.6 °F 65% 30.12 in 10.0 mi NNW 8.1 mph - N/A   Overcast
4:35 PM 37.4 °F 34.9 °F 26.6 °F 65% 30.11 in 10.0 mi WNW 3.5 mph - N/A   Overcast
4:55 PM 37.4 °F 32.8 °F 26.6 °F 65% 30.11 in 10.0 mi NW 5.8 mph - N/A   Overcast
5:15 PM 37.4 °F 34.9 °F 26.6 °F 65% 30.11 in 10.0 mi NNW 3.5 mph - N/A   Overcast
5:35 PM 37.4 °F 34.9 °F 26.6 °F 65% 30.11 in 10.0 mi NNW 3.5 mph - N/A   Overcast
5:55 PM 37.4 °F 34.9 °F 26.6 °F 65% 30.11 in 10.0 mi NW 3.5 mph - N/A   Overcast
6:15 PM 37.4 °F 34.9 °F 26.6 °F 65% 30.11 in 10.0 mi NNW 3.5 mph - N/A   Overcast
6:35 PM 37.4 °F - 26.6 °F 65% 30.12 in 10.0 mi Calm Calm - N/A   Overcast
6:55 PM 37.4 °F - 26.6 °F 65% 30.12 in 10.0 mi Calm Calm - N/A   Overcast
7:15 PM 37.4 °F - 26.6 °F 65% 30.12 in 10.0 mi Calm Calm - N/A   Overcast
7:35 PM 37.4 °F - 26.6 °F 65% 30.12 in 10.0 mi Calm Calm - N/A   Overcast
7:55 PM 37.4 °F - 26.6 °F 65% 30.11 in 10.0 mi Calm Calm - N/A   Overcast
8:15 PM 35.6 °F - 26.6 °F 70% 30.11 in 10.0 mi Calm Calm - N/A   Overcast
8:35 PM 35.6 °F - 26.6 °F 70% 30.11 in 10.0 mi Calm Calm - N/A   Overcast
8:55 PM 35.6 °F - 26.6 °F 70% 30.11 in 10.0 mi Calm Calm - N/A   Overcast
9:15 PM 37.4 °F - 26.6 °F 65% 30.11 in 10.0 mi Calm Calm - N/A   Overcast
9:35 PM 35.6 °F - 30.2 °F 81% 30.11 in 10.0 mi Calm Calm - N/A   Overcast
9:55 PM 35.6 °F - 28.4 °F 75% 30.11 in 10.0 mi Calm Calm - N/A   Overcast
10:15 PM 35.6 °F - 28.4 °F 75% 30.11 in 10.0 mi Calm Calm - N/A   Overcast
10:35 PM 35.6 °F - 28.4 °F 75% 30.11 in 10.0 mi Calm Calm - N/A   Overcast
10:55 PM 35.6 °F - 28.4 °F 75% 30.11 in 10.0 mi Calm Calm - N/A   Overcast